Location: Newark
(34.3481°N, 134.0494°E)
Time: 22:01:34
(UTC+00:00)

Vanguard 3 - Pass Details

Date: 02 February 2020
Orbit: 508 x 3263 km, 33.3° (Epoch: 19 February)

Event Time Altitude Azimuth Distance (km) Brightness Sun altitude
Rises 06:22:05 0° 245° (WSW) 5,818 12.8 22.5°
Reaches altitude 10° 06:25:23 10° 244° (WSW) 5,104 13.0 22.0°
Maximum altitude 06:41:54 76° 161° (SSE) 3,218 10.6 19.3°
Drops below altitude 10° 07:01:52 10° 81° (E) 6,004 11.1 16.0°
Sets 07:06:09 0° 80° (E) 6,840 11.3 15.3°
